FREGAT DEB, 45833

Orbit data source: Space-Track

FREGAT DEB, 45833 is space debris in LEO originally from a launch on Mon, 18 Jul 2011 UTC launched from the Tyuratam Missile And Space Complex (TTMTR). Debris objects in space refer to the collection of defunct objects orbiting the Earth. Examples of debris include non-operational satellites, rocket bodies, and fragments generated from explosions, collisions, or faulty payload assembly.

Loading next visibility...
Identifier
45833, 2011-037BT
Orbit
LEO
Country
Flag of CISCIS
Related business
Manufacturer
Lavochkin
Mission
Spacecraft
Bus & Motor
Unknown
Mass
Unknown
Launch date (UTC)
2011-07-18 (15 years ago)
Launch vehicle
Unknown
Launch site
Tyuratam Missile And Space Complex (TTMTR)
Object type
Payload
Rocket body
Debris
Shape & HBR
Unknown shape, 1.1 m
Radar Cross Section
Small (<0.1 m²)

Expand to show TLE details & history
Last TLE update: 2 months ago

TLE from 2 months ago
0 FREGAT DEB
1 45833U 11037BT  25349.04779268 -.00000275  00000-0 -65381-3 0  9993
2 45833  51.5919 237.9273 2010394 212.4880 133.4867 10.23878538206614
Epoch: 2025-12-15T01:08Z
TLE epoch observation values (Epoch: 2025-12-15T01:08:49.287Z)
Latitude
-0.00001°
Longitude
136.76997°
Altitude
3,975.889 km
Speed
5.703 km/s
True Right ascension
15h 51m 42s
True Declination
0° 00' 00"
Sunlit
Object was in daylight at epoch
Visualization orbit readout
Latitude
Unknown
Longitude
Unknown
Altitude
Unknown
Speed
Unknown
Apparent Right ascension
Unknown
Apparent Declination
Unknown
Sunlit
N/A
Visualization observer readout
Local Sidereal Time
08:28:38
Azimuth
Unknown
Elevation
Unknown
Doppler factor
Unknown
Orbital elements
Apogee altitude
4,381.9 km
Perigee altitude
779.701 km
Semi-major axis
8,958.937 km
Eccentricity
0.20104
Inclination
51.5919°
RAAN
237.9273°
Arg. of periapsis
212.488°
True anomaly
147.58629°
Mean anomaly
133.4867°
Eccentric anomaly
140.77133°
Mean motion
2.55952 °/min
Orbital period
140.65 mins
BSTAR
-0.00065381
Loading maneuver chart data...
Computing Atmospheric mass density...
Loading historical data...
Loading historical data...
Loading historical data...
Loading historical data...
Loading historical data...
Loading historical data...
Loading historical data...

Documentation

Showing up to 5 results
|